Lid_Strength_Index
2 2 1 1 1 0 -0 0 0 -0 0 1 1 1 1 0 -0 -0 -1 -1 -1 -1 -1 -1 -1 -1 -0 -1 -1 -0 -0 0 -1 0 0 0 -1 -0 0 0 1 0 -0
3 2 2 1 1 1 0 0 0 0 0 0 0 0 0 0 -0 -0 -1 -1 -1 -1 -1 -1 -1 -1 -0 -0 -1 -0 1 0 -1 1 1 3 2 0 -0 0 1 -0 0
3 3 2 2 1 1 1 1 -0 -0 -0 -0 0 0 0 0 1 0 0 -0 -1 -1 -1 -1 -1 -1 -0 0 -0 -0 -0 1 -0 -0 2 3 4 2 1 0 1 -1 0
3 3 2 2 2 1 1 0 0 -0 -0 -0 0 1 2 2 1 1 0 -0 -1 -0 -1 -0 -0 -1 -0 -0 0 -0 -0 0 1 0 0 0 1 4 4 1 0 -0 -0
3 3 3 2 2 1 1 1 0 0 -0 -0 -0 1 1 1 0 0 -0 -0 -0 -0 -0 -1 -0 -0 -0 -0 -1 -0 -0 0 1 2 1 0 1 1 3 4 2 1 0
3 3 2 2 2 1 1 1 1 1 1 0 0 1 1 1 1 1 1 1 0 0 -0 -1 -0 -0 -0 -0 -0 -1 -1 -0 0 0 1 1 2 2 2 3 2 2 1
3 3 3 2 2 2 1 1 1 1 1 1 1 1 1 1 1 1 1 1 1 1 0 -0 -0 0 -0 -1 -1 -0 -0 0 0 -0 1 1 1 1 3 3 3 3 1
3 3 2 2 2 2 1 1 1 1 1 1 1 0 0 1 1 1 1 1 1 1 0 -0 -0 -0 -0 -0 -0 -0 0 -0 0 0 0 0 0 1 1 2 3 4 2
3 3 2 2 1 1 1 1 1 1 0 0 0 0 0 1 1 0 0 1 0 0 0 -0 -0 -0 -0 -0 -0 0 1 0 0 0 1 1 1 0 -0 0 2 3 5
3 3 2 1 1 2 0 0 0 1 0 0 -0 0 1 0 1 1 1 1 0 0 0 0 -0 -0 -0 -0 -0 0 0 0 1 1 1 1 1 0 -0 0 0 2 3
3 3 2 1 1 1 1 1 0 0 0 0 -0 -0 0 0 0 1 1 1 0 1 1 0 0 0 0 -0 -0 0 0 1 0 0 1 1 0 1 0 -0 1 2 3
4 4 3 3 2 2 2 1 0 1 1 -0 -0 0 -0 -0 0 1 0 0 1 0 1 0 0 0 0 -0 0 1 0 1 1 1 1 1 0 0 -0 0 -0 0 -1
4 3 3 3 3 2 2 1 1 1 1 0 0 -0 0 0 -0 -0 -0 -0 1 1 1 0 1 0 0 0 0 0 0 0 1 1 1 1 0 1 1 0 0 1 1
4 3 3 3 3 2 2 1 1 1 0 1 1 0 0 -0 -0 -0 -0 -0 0 1 1 1 0 0 0 -0 0 0 0 0 0 0 1 1 1 1 1 1 1 0 1
4 4 3 3 3 2 2 2 1 1 0 1 1 0 -0 -0 -0 -0 -0 -0 -0 0 0 1 0 0 0 0 0 -0 0 0 1 0 0 0 1 1 1 1 1 0 1
5 4 3 3 3 3 2 2 2 1 0 1 1 1 -0 0 -0 0 -0 -0 0 -0 0 0 1 1 1 5 6 2 0 0 1 1 1 0 1 1 3 3 3 1 1
3 3 2 2 2 1 1 1 1 1 1 1 1 1 1 0 0 1 0 0 -0 -0 -0 -0 0 1 1 6 7 6 1 1 1 1 1 1 1 1 0 4 4 5 5
3 2 2 2 1 1 1 0 0 1 1 1 1 0 0 0 0 0 1 0 -0 0 0 0 -0 0 0 6 8 8 1 1 1 0 1 1 1 1 1 1 2 3 2
2 2 1 1 1 1 1 1 1 1 1 1 1 0 0 0 1 1 1 -0 0 0 0 0 0 0 0 5 9 6 2 2 1 1 0 1 1 4 8 1 2 2 2
2 2 2 2 2 1 1 1 1 1 1 1 1 0 0 0 1 1 0 -0 0 1 1 1 -0 2 0 4 8 6 1 2 2 1 1 5 2 7 8 3 2 2 3
2 2 2 2 2 2 2 3 3 2 1 0 0 0 0 0 0 0 0 0 1 1 1 1 0 0 1 1 9 10 4 1 2 2 2 1 7 9 10 8 2 2 1
3 2 3 2 1 1 1 2 2 1 0 0 0 0 0 0 0 0 0 0 1 1 1 1 1 1 -1 5 5 8 10 9 5 2 1 1 8 9 10 9 7 8 7
2 1 3 3 2 1 1 2 1 1 1 1 1 1 1 1 0 1 1 1 1 2 2 1 1 1 0 0 5 7 8 8 6 2 4 9 10 10 10 10 10 10 4
3 2 3 2 2 2 1 1 1 1 1 2 1 1 1 1 1 1 1 1 2 1 1 1 2 1 1 1 2 3 3 6 5 6 5 5 6 7 6 7 8 5 4
3 3 3 2 2 1 1 1 1 0 1 2 1 1 1 1 1 1 1 1 0 1 1 1 1 2 2 1 7 9 6 6 6 6 4 4 3 4 4 4 5 3 3
3 3 2 2 1 2 2 1 0 0 1 1 2 1 2 2 1 2 2 5 6 7 8 8 7 0 6 8 9 9 9 10 11 5 4 5 5 5 4 4 4 4 4